Location: Gleizolles
(44.4833°N, 6.7667°E)
Time: 01:40:47
(UTC+00:00)

Vanguard 2 Rocket - Pass Details

Date: 16 June 2024
Orbit: 555 x 3302 km, 32.9° (Epoch: 24 July)

Event Time Altitude Azimuth Distance (km) Brightness Sun altitude
Rises 06:45:07 0° 262° (W) 6,992 10.9 28.6°
Reaches altitude 10° 06:50:28 10° 258° (WSW) 5,687 10.5 29.5°
Maximum altitude 07:05:16 47° 193° (SSW) 2,525 9.4 32.2°
Drops below altitude 10° 07:14:07 10° 122° (ESE) 3,486 10.8 33.8°
Sets 07:16:36 0° 116° (ESE) 4,168 11.1 34.2°
